Regional Weather Roundup
Issued by NWS

Home | Current Version | Previous Version | Text Only | Print | Product List | Glossary Off
Versions: 1 2 3 4 5 6 7 8 9 10 11 12 13 14 15 16 17 18 19 20 21 22 23 24 25 26 27 28 29 30 31 32 33 34 35 36 37 38 39 40 41 42 43 44 45 46 47 48 49 50

000
ASUS44 KMEG 250800
RWRTN
TENNESSEE HOURLY STATE WEATHER ROUNDUP
NATIONAL WEATHER SERVICE MEMPHIS TN
300 AM CDT MON MAY 25 2015

TNZ002-004-019-021-049-052-054-088>092-250900-
WEST TENNESSEE

CITY           SKY/WX    TMP DP  RH WIND       PRES   REMARKS
MEMPHIS INTL   LGT RAIN  70  66  87 S12       30.03S
NWS MEMPHIS      N/A     68 N/A N/A MISG        N/A
JACKSON        LGT RAIN  68  65  90 S6        30.06R
DYERSBURG      CLOUDY    68  54  60 S5        30.04S
PARIS          CLOUDY    64  64 100 S9        30.06F
LEXINGTON      CLOUDY    70  66  88 S3        30.07F
$$

TNZ008-025-027-028-033-062-065-066-250900-
NORTH MIDDLE TENNESSEE

CITY           SKY/WX    TMP DP  RH WIND       PRES   REMARKS
NASHVILLE      CLOUDY    72  62  71 S12       30.10F
CLARKSVILLE    LGT RAIN  70  66  87 S13G20    30.07R
COOKEVILLE     CLEAR     72  57  60 S12       30.16R
CROSSVILLE     CLEAR     68  54  60 S5        30.22R
$$

TNZ061-075-076-078-094-096-097-250900-
SOUTH MIDDLE TENNESSEE

CITY           SKY/WX    TMP DP  RH WIND       PRES   REMARKS
FAYETTEVILLE   CLEAR    N/A N/A N/A MISG      30.14S
TULLAHOMA      PTCLDY    70  57  64 SE12      30.16S
WINCHESTER     CLEAR     72  57  60 S15       30.16S
MCMINNVILLE    CLEAR     73  57  56 S8        30.16S
COLUMBIA       CLOUDY    70  66  88 CALM      30.09S
SHELBYVILLE    CLEAR     72  63  73 SE8       30.13F
$$

TNZ017-018-042-046-047-250900-
NORTHEAST TENNESSEE

CITY           SKY/WX    TMP DP  RH WIND       PRES   REMARKS
TRI CITIES     PTCLDY    56  51  84 CALM      30.25F
ELIZABETHTON   SUNNY     54  50  87 CALM      30.27S
$$

TNZ012-013-036-069-073-074-250900-
CENTRAL EAST TENNESSEE

CITY           SKY/WX    TMP DP  RH WIND       PRES   REMARKS
KNOXVILLE      CLEAR     68  52  56 CALM      30.20
OAK RIDGE      PTCLDY    65  55  70 CALM      30.22S
GATLINBURG     SUNNY     55  52  88 CALM      30.20S
$$

TNZ083-085-099-250900-
SOUTHEAST TENNESSEE

CITY           SKY/WX    TMP DP  RH WIND       PRES   REMARKS
CHATTANOOGA    CLEAR     71  57  61 S7        30.20F
$$

SKY/WX REPORTED AS FAIR MEANS FEW OR NO CLOUDS BELOW
12 THOUSAND FEET.




USA.gov is the U.S. government's official web portal to all federal, state and local government web resources and services.